Theta_e
309 313 313 311 310 310 310 310 311 311 309 309 312 311 312 310 309 309 309 309 308 307 305 303 301 300 299 298 297 296 299 301 303 303 309 316 317 317 319 320 323 322 321 324
312 312 309 308 309 309 310 309 311 311 308 309 311 311 310 310 309 309 308 308 308 307 306 305 302 300 298 296 296 295 297 302 302 303 304 312 316 317 316 318 320 319 321 324
313 310 307 308 309 309 310 309 309 309 310 311 309 312 311 310 308 308 308 307 306 306 306 305 303 301 298 296 295 295 295 301 302 302 302 306 314 315 316 317 320 319 321 322
308 306 307 308 309 309 309 308 308 310 311 314 309 311 312 310 309 309 308 307 306 305 305 304 302 301 299 295 295 296 298 302 302 302 302 303 309 312 313 314 319 317 320 321
310 306 306 308 308 308 310 306 308 309 311 311 312 311 312 310 309 309 308 307 306 305 304 303 302 300 299 296 295 298 300 301 302 302 302 302 306 309 310 311 316 318 319 320
307 305 306 306 306 307 306 308 308 307 309 319 310 308 310 308 309 309 308 307 306 305 304 303 301 301 299 296 295 299 299 301 301 302 302 302 303 304 305 310 313 316 318 319
306 306 304 304 307 306 306 309 323 324 321 324 306 307 309 308 309 308 308 307 306 305 304 304 302 301 300 297 294 296 297 297 301 301 302 302 302 303 302 304 310 312 316 318
316 325 305 304 307 308 307 306 317 317 321 312 304 309 310 308 307 306 306 307 306 305 304 303 302 301 300 297 294 295 296 299 301 301 301 302 302 302 302 303 305 312 316 318
312 312 303 303 304 305 308 312 304 309 301 308 310 307 307 306 308 308 307 306 306 305 304 303 302 300 300 298 294 295 296 299 301 302 302 302 302 302 302 302 303 305 312 315
309 319 303 303 304 305 306 304 310 309 316 322 313 306 308 307 307 308 307 306 305 304 303 303 301 300 300 298 294 294 296 296 300 301 302 302 303 303 302 302 302 303 304 309
305 309 309 302 307 310 306 308 304 306 305 315 319 314 310 307 307 308 306 305 304 302 302 301 301 300 299 297 294 294 295 296 300 302 302 302 303 303 302 302 303 303 303 304
302 309 311 314 302 301 304 306 306 310 317 306 306 313 304 307 307 306 306 305 302 300 299 299 299 299 298 296 294 294 294 295 301 302 303 303 303 303 303 302 302 302 303 303
303 311 322 316 306 302 305 305 305 302 303 312 315 322 303 303 303 304 304 304 301 300 299 298 298 297 297 295 294 294 294 295 302 302 302 303 303 303 303 302 302 301 302 303
300 308 315 318 313 309 307 305 305 306 311 313 309 313 311 306 304 304 302 300 300 299 299 298 297 296 296 295 295 294 295 296 303 303 303 304 304 303 303 303 303 302 302 303
301 307 302 306 303 302 305 308 306 305 307 314 314 306 308 311 306 303 301 301 301 299 299 298 298 296 296 295 295 295 295 296 303 303 303 304 304 304 304 304 304 304 304 305
301 308 301 307 300 300 302 303 306 305 305 306 305 304 306 306 305 303 301 300 300 300 300 299 298 297 296 295 295 296 296 299 303 303 304 304 304 304 304 305 306 306 307 307
303 304 306 317 299 300 311 303 304 305 305 305 306 308 308 307 302 302 302 301 301 302 302 302 300 298 296 296 297 303 303 304 304 304 305 304 304 304 305 306 306 307 308 309
303 303 306 314 308 320 318 302 304 305 305 304 305 306 307 305 303 302 303 304 303 303 302 302 302 299 297 296 297 305 305 304 304 305 304 301 303 304 305 305 306 307 307 307
300 302 312 314 315 315 315 301 302 303 311 305 305 305 305 303 300 302 303 303 302 302 301 302 302 300 297 296 296 304 304 304 304 304 302 298 298 303 304 305 305 306 306 307
298 298 305 305 313 320 316 301 300 300 311 308 305 306 305 301 305 307 305 303 302 302 302 302 301 300 298 296 296 296 303 304 304 303 301 298 295 296 304 304 304 306 306 306
300 301 303 308 313 314 310 299 299 314 317 303 303 305 304 303 306 304 304 304 303 302 301 301 301 300 299 297 296 296 296 298 302 302 301 298 295 295 295 299 303 304 305 305
305 305 304 307 307 311 299 298 306 308 304 302 301 303 303 302 303 303 304 302 302 302 302 301 301 300 299 298 297 297 296 295 295 295 296 295 294 294 294 294 297 302 303 304
307 309 308 307 308 305 301 306 306 306 303 303 302 301 302 302 302 303 303 303 303 304 303 302 301 301 300 299 298 298 296 296 296 295 294 294 294 294 294 294 294 295 301 303
300 300 305 304 306 302 302 305 305 305 305 305 305 304 302 302 302 302 303 303 304 304 304 304 303 303 302 302 301 300 297 297 296 296 295 295 294 294 294 294 294 294 294 296
305 300 303 303 303 303 304 305 308 308 309 310 308 307 306 303 302 302 304 304 304 303 303 303 302 302 302 302 302 302 300 299 299 298 297 296 295 295 294 294 294 294 294 294
300 304 306 310 307 309 312 313 312 311 315 316 312 310 309 306 304 302 303 304 303 303 304 306 307 306 303 302 301 301 301 301 301 301 300 299 298 297 296 295 295 294 294 294
Wind_Speed
4 2 5 5 6 8 2 4 8 7 5 9 6 12 9 4 5 7 9 9 10 9 7 7 8 10 11 12 16 17 18 18 18 14 10 11 10 9 9 5 22 21 22 23
1 4 3 2 1 3 1 4 5 7 2 7 10 13 4 3 2 4 7 8 9 9 8 8 8 8 11 13 15 17 16 17 17 16 10 9 9 9 4 11 15 18 19 21
2 4 2 1 1 2 2 2 6 5 11 9 12 7 6 5 3 2 5 6 6 6 7 7 7 8 9 13 15 18 17 15 16 15 11 8 4 6 8 9 11 20 22 22
5 2 1 2 4 6 1 2 4 5 6 2 6 3 5 2 3 2 2 5 5 3 4 5 5 7 8 14 15 17 15 13 14 14 10 7 4 7 7 4 13 20 19 22
2 2 1 2 3 6 3 3 2 2 3 7 1 4 4 2 3 4 3 4 5 4 4 4 4 7 8 12 14 13 13 12 12 12 9 7 5 11 7 3 12 14 13 16
4 1 2 4 1 4 5 4 3 2 1 3 1 3 1 4 4 2 2 3 5 6 5 5 5 6 4 8 12 11 11 11 11 10 8 6 6 11 10 4 4 19 11 13
1 2 1 2 3 3 4 4 3 2 1 1 2 4 6 2 2 3 5 5 6 6 6 6 5 4 6 9 10 11 11 10 10 8 8 6 6 8 8 6 4 7 10 9
2 3 1 2 2 3 3 5 2 4 3 3 2 5 1 2 2 5 5 6 7 7 6 6 5 5 6 8 10 10 10 10 9 8 7 6 5 4 5 6 7 7 8 10
3 2 1 2 2 2 1 1 2 0 2 3 2 5 5 2 4 3 3 3 6 7 8 7 6 5 5 6 8 8 9 9 7 8 8 7 7 4 3 5 6 9 11 11
1 1 0 1 2 2 2 3 1 2 3 4 3 4 2 5 6 4 3 3 4 5 7 8 6 6 7 6 7 8 8 8 7 7 5 5 5 4 2 3 5 7 10 11
3 1 1 2 4 3 3 2 2 1 1 3 4 1 3 4 5 4 2 2 5 6 6 6 6 6 5 6 7 7 7 7 6 6 6 5 6 4 3 2 4 7 9 11
4 1 2 2 1 1 3 3 4 3 2 1 2 6 1 3 1 2 4 4 5 5 4 5 4 4 4 5 6 7 6 7 5 6 7 7 7 7 5 3 3 4 8 11
4 2 1 2 2 0 4 5 4 3 2 5 2 2 3 3 5 8 9 7 8 8 4 5 3 3 3 4 6 6 6 6 4 6 6 7 8 8 7 5 3 2 4 8
4 2 4 3 2 3 4 6 12 5 3 5 8 10 10 7 7 10 12 12 13 9 5 4 3 2 2 3 4 5 5 5 5 6 8 10 10 9 10 9 8 6 4 7
2 4 2 3 4 3 3 4 11 12 10 8 2 7 15 5 7 15 15 18 10 9 6 5 3 2 1 2 3 3 3 4 4 4 7 9 9 10 10 10 11 11 10 9
3 2 1 4 1 4 6 10 12 17 10 14 13 23 16 21 14 19 20 14 12 9 6 5 5 3 0 2 3 3 4 6 5 2 4 6 8 9 10 12 13 12 11 11
6 3 2 4 1 3 8 10 16 8 8 11 11 13 8 6 5 10 11 15 14 11 9 7 5 3 2 2 4 6 8 10 6 1 3 4 6 9 11 12 12 10 11 10
5 3 1 3 2 5 3 3 4 14 8 19 14 12 7 6 7 10 12 13 13 12 11 9 7 6 5 4 5 8 10 8 5 2 3 5 3 5 6 8 9 9 8 6
2 4 3 3 3 8 4 4 6 8 7 21 25 21 18 9 7 18 19 19 15 12 12 12 11 8 7 7 6 7 7 7 5 2 3 3 3 2 2 4 5 6 8 8
2 3 4 3 4 6 1 3 5 3 5 2 24 16 14 10 6 6 8 22 20 15 12 13 13 11 9 9 8 7 7 6 5 4 2 3 3 2 3 3 3 2 3 5
5 4 11 11 6 7 6 11 11 3 4 7 4 13 18 10 12 3 8 13 14 13 12 13 13 11 9 9 9 8 7 6 6 5 3 2 2 2 2 2 4 6 6 5
11 11 6 6 6 10 13 8 7 2 3 8 5 9 22 22 10 9 13 14 13 12 12 12 12 11 11 11 10 9 7 8 7 7 6 4 3 3 3 3 3 5 9 10
6 7 7 12 8 1 25 8 20 8 3 5 7 5 12 16 15 13 17 16 14 13 12 12 12 12 12 12 11 10 8 9 9 8 8 8 6 6 6 6 7 7 7 10
5 5 3 2 8 16 17 25 24 14 13 17 15 10 9 15 20 17 18 17 16 14 13 13 14 15 14 13 13 11 13 12 12 11 11 11 10 10 9 9 8 8 9 10
4 13 7 4 10 13 20 25 28 23 16 21 23 22 19 15 20 23 22 20 18 16 16 16 16 16 14 15 16 16 17 17 15 14 15 14 14 13 13 12 12 11 11 11
9 7 7 6 18 13 17 18 17 14 12 18 21 20 22 24 23 23 26 21 20 19 18 18 16 17 17 18 19 19 19 21 20 20 19 18 18 17 16 16 16 15 14 14
Wind_Direction
13 80 63 45 42 92 72 307 302 322 20 323 289 305 304 332 276 269 275 283 289 292 297 309 316 327 331 330 332 331 340 337 330 322 298 284 271 278 250 277 164 173 188 202
199 83 82 56 18 96 62 324 354 307 302 314 298 304 254 265 308 300 300 302 297 291 285 296 302 322 327 332 330 329 341 339 337 328 318 304 290 270 253 223 201 199 210 203
43 87 129 306 278 290 73 4 352 307 315 265 285 247 218 189 259 284 295 301 298 280 277 293 302 321 333 332 333 328 337 337 338 337 332 305 314 266 247 155 191 201 218 218
71 102 176 272 289 308 286 93 307 308 330 336 342 316 182 195 308 206 312 322 329 312 276 291 301 316 332 336 335 331 338 340 337 344 343 325 283 273 247 219 170 202 224 221
102 150 199 274 359 318 33 298 298 297 294 313 198 245 109 179 307 36 358 322 322 315 302 292 290 315 334 339 341 342 345 346 344 346 351 339 299 275 265 242 196 206 207 222
84 76 347 6 340 303 318 251 222 244 286 254 193 294 71 342 332 335 354 340 315 307 296 281 279 319 337 335 344 341 342 347 355 344 354 357 312 279 280 257 193 209 208 226
200 140 122 333 272 214 272 291 325 285 233 291 159 259 270 292 258 280 298 309 306 298 293 285 276 289 318 339 346 348 343 342 355 355 350 348 340 290 282 277 241 192 174 205
202 267 194 27 335 342 8 318 126 291 325 355 126 237 195 131 215 267 265 274 287 285 286 283 276 296 320 344 355 355 354 354 2 3 356 345 326 308 295 268 253 230 197 197
143 229 130 38 358 330 59 269 48 138 144 278 250 252 255 207 214 206 244 263 284 294 295 295 287 299 316 338 355 9 1 5 9 10 6 355 330 339 285 257 242 234 219 201
157 309 326 69 266 118 250 130 121 80 302 271 210 277 283 204 208 197 235 271 305 304 302 297 288 285 316 344 358 12 13 5 7 17 26 13 353 337 320 267 238 225 226 225
121 174 77 276 203 168 162 207 219 135 240 297 315 256 186 165 179 194 177 297 313 313 299 294 284 291 311 336 356 15 21 8 11 22 24 21 26 12 336 302 253 229 222 229
156 235 216 231 85 325 279 278 249 184 171 230 291 275 321 111 148 231 239 267 301 303 295 299 295 293 316 341 357 3 24 16 39 35 34 38 34 33 17 352 324 264 226 211
164 218 280 266 193 193 242 196 229 80 103 209 252 271 0 282 263 249 252 256 284 284 282 301 323 307 312 332 358 4 19 37 80 46 39 48 45 41 36 29 18 348 237 201
151 233 226 275 85 98 196 209 205 200 185 178 228 292 282 281 263 258 251 277 281 248 249 264 292 298 312 335 358 13 20 39 56 37 42 48 50 50 54 58 61 72 100 154
222 247 210 261 240 240 249 190 195 208 215 213 209 229 266 243 253 271 276 285 242 235 228 244 262 283 309 352 13 17 50 81 92 41 57 65 64 61 62 66 77 86 98 115
181 256 181 271 179 233 263 245 213 223 238 261 275 285 277 290 274 251 259 239 231 227 222 226 244 248 293 23 37 51 98 111 135 110 80 72 71 75 80 75 76 83 98 115
175 194 185 263 298 287 269 229 210 192 213 214 217 234 259 280 271 261 244 220 225 220 219 225 240 241 189 121 76 89 115 131 143 89 50 36 52 60 69 80 82 87 94 101
163 175 189 280 331 253 247 153 188 212 226 216 253 245 214 247 252 258 238 230 225 219 218 221 228 231 205 171 137 126 129 131 128 110 32 31 40 50 63 93 97 98 101 103
214 189 203 245 230 313 307 194 173 189 277 209 223 242 227 236 295 270 244 234 226 233 233 225 221 220 215 196 173 164 161 150 142 114 53 43 52 164 112 91 111 123 130 133
158 271 243 159 234 239 326 168 175 183 282 35 211 232 208 166 234 248 259 227 235 230 218 212 209 212 213 208 196 189 188 186 170 154 116 75 72 84 184 182 178 150 161 145
165 188 216 223 256 280 244 157 145 151 263 332 253 218 181 194 216 282 208 189 188 194 196 197 202 208 209 215 215 210 209 201 205 205 196 169 120 113 118 181 204 213 210 203
170 169 183 198 226 262 150 119 202 165 324 334 316 208 200 210 222 237 196 191 190 194 196 196 201 209 216 218 220 219 217 220 219 222 219 222 217 195 175 180 208 212 216 221
212 192 182 191 203 278 189 223 217 229 311 333 343 307 227 230 226 221 206 204 204 208 205 205 208 215 220 226 227 227 212 231 236 239 238 236 229 225 219 210 200 208 222 223
229 174 211 135 234 235 234 229 243 239 259 265 284 301 280 245 225 226 220 216 213 219 224 221 222 226 230 234 238 231 226 230 231 235 241 246 246 241 237 235 235 226 221 226
153 150 160 264 282 264 262 250 254 251 262 277 274 268 276 272 247 230 227 227 228 227 232 238 241 243 238 242 243 240 239 244 243 243 243 247 249 252 252 251 246 243 240 237
187 173 183 210 220 222 251 261 264 241 246 277 290 276 268 259 260 245 238 231 233 236 235 242 250 251 247 243 248 245 244 250 254 253 252 254 256 255 256 255 254 253 251 250